Regional Weather Roundup
Issued by NWS

Home | Current Version | Previous Version | Text Only | Print | Product List | Glossary On
Versions: 1 2 3 4 5 6 7 8 9 10 11 12 13 14 15 16 17 18 19 20 21 22 23 24 25 26 27 28 29 30 31 32 33 34 35 36 37 38 39 40 41 42 43 44 45 46 47 48 49 50
000
ASUS45 KBOI 280910
RWRID

IDAHO REGIONAL WEATHER ROUNDUP
NATIONAL WEATHER SERVICE BOISE ID
300 AM MDT FRI AUG 28 2015

NOTE: "FAIR" INDICATES FEW OR NO CLOUDS BELOW 12000 FEET
WITH NO SIGNIFICANT WEATHER AND/OR OBSTRUCTIONS TO VISIBILITY

IDZ012-014-281000-
SOUTHWEST IDAHO


CITY           SKY/WX    TMP DP  RH WIND       PRES   REMARKS
BOISE          PTCLDY    74  36  25 E8        30.02S
CALDWELL       PTCLDY    61  43  51 NE3       30.01S
MOUNTAIN HOME  PTCLDY    63  36  36 E6        30.04S
$$

IDZ016-017-281000-
SOUTHCENTRAL IDAHO


CITY           SKY/WX    TMP DP  RH WIND       PRES   REMARKS
BURLEY         CLEAR     57  45  64 CALM      30.13F
JEROME         PTCLDY    64  40  41 E7        30.12F
TWIN FALLS     PTCLDY    67  37  33 S9        30.13S
$$

IDZ019>023-281000-
SOUTHEAST IDAHO


CITY           SKY/WX    TMP DP  RH WIND       PRES   REMARKS
IDAHO FALLS    PTCLDY    58  44  60 SW10      30.17F
POCATELLO      CLEAR     67  34  29 S8        30.17S
REXBURG        PTCLDY    51  43  74 N5        30.19R
$$

IDZ006-010-011-018-031-032-281000-
CENTRAL IDAHO MOUNTAINS


CITY           SKY/WX    TMP DP  RH WIND       PRES   REMARKS
MCCALL         PTCLDY    52  37  56 CALM      30.17S
HAILEY         CLEAR     57  37  47 W14       30.24S
STANLEY          N/A     43  27  53 CALM      30.33S
SALMON         CLOUDY    57  43  58 CALM      30.15S
CHALLIS        CLEAR     57  30  35 CALM      30.22S
$$

IDZ002-004-006-007-026-281000-
NORTHERN IDAHO


CITY           SKY/WX    TMP DP  RH WIND       PRES   REMARKS
LEWISTON       MOCLDY    69  40  34 SE3       29.95S
LOWELL           N/A     58  51  78 CALM      30.04S
COEUR D`ALENE  PTCLDY    63  46  55 SE7       29.99S
MULLAN PASS    PTCLDY    60  35  39 SW5       30.21S
$$


USA.gov is the U.S. government's official web portal to all federal, state and local government web resources and services.